TimeAEST,TemperatureF,Dew PointF,Humidity,Sea Level PressureIn,VisibilityMPH,Wind Direction,Wind SpeedMPH,Gust SpeedMPH,PrecipitationIn,Events,Conditions,WindDirDegrees,DateUTC
12:00 AM,76,73,88,29.85,,SE,27.6,,,,,140,2013-03-10 14:00:00
12:00 AM,77.0,73.4,89,29.86,-9999.0,SE,27.6,-,N/A,,Unknown,140,2013-03-10 14:00:00
12:30 AM,77.0,73.4,89,29.83,-9999.0,SE,29.9,-,N/A,,Unknown,140,2013-03-10 14:30:00
1:00 AM,77.0,73.4,89,29.83,-9999.0,SE,28.8,-,N/A,,Unknown,130,2013-03-10 15:00:00
1:30 AM,77.0,73.4,89,29.83,-9999.0,SE,27.6,-,N/A,,Unknown,140,2013-03-10 15:30:00
2:00 AM,77.0,73.4,89,29.80,-9999.0,SE,25.3,-,N/A,,Unknown,140,2013-03-10 16:00:00
2:30 AM,77.0,71.6,83,29.80,-9999.0,ESE,27.6,-,N/A,,Unknown,120,2013-03-10 16:30:00
3:00 AM,75,72,88,29.80,,ESE,21.9,,,,,120,2013-03-10 17:00:00
3:00 AM,75.2,71.6,89,29.80,-9999.0,ESE,21.9,-,N/A,,Unknown,120,2013-03-10 17:00:00
3:37 AM,73.4,73.4,100,29.80,-9999.0,East,25.3,-,N/A,,Unknown,100,2013-03-10 17:37:00
3:53 AM,73.4,73.4,100,29.80,-9999.0,ESE,26.5,38.0,N/A,,Unknown,120,2013-03-10 17:53:00
4:00 AM,73.4,73.4,100,29.80,-9999.0,ESE,20.7,-,N/A,,Unknown,120,2013-03-10 18:00:00
4:30 AM,75.2,73.4,94,29.80,-9999.0,SE,21.9,-,N/A,,Unknown,130,2013-03-10 18:30:00
5:00 AM,75.2,71.6,89,29.80,-9999.0,SE,25.3,-,N/A,,Unknown,130,2013-03-10 19:00:00
5:30 AM,75.2,71.6,89,29.80,-9999.0,ESE,31.1,-,N/A,,Unknown,120,2013-03-10 19:30:00
6:00 AM,75,71,82,29.81,,ESE,29.9,,,,,120,2013-03-10 20:00:00
6:00 AM,75.2,69.8,83,29.80,-9999.0,ESE,29.9,-,N/A,,Unknown,120,2013-03-10 20:00:00
6:30 AM,75.2,69.8,83,29.83,-9999.0,SE,23.0,-,N/A,,Unknown,130,2013-03-10 20:30:00
7:00 AM,77.0,69.8,78,29.83,-9999.0,SE,25.3,-,N/A,,Unknown,130,2013-03-10 21:00:00
7:30 AM,75.2,71.6,89,29.83,-9999.0,SSE,26.5,-,N/A,,Unknown,150,2013-03-10 21:30:00
7:51 AM,73.4,71.6,94,29.83,-9999.0,ESE,31.1,-,N/A,,Unknown,110,2013-03-10 21:51:00
7:57 AM,73.4,73.4,100,29.86,-9999.0,ESE,27.6,39.1,N/A,,Unknown,120,2013-03-10 21:57:00
8:00 AM,75.2,73.4,94,29.86,-9999.0,ESE,26.5,39.1,N/A,,Unknown,120,2013-03-10 22:00:00
8:01 AM,75.2,73.4,94,29.86,-9999.0,SSE,20.7,35.7,N/A,,Unknown,150,2013-03-10 22:01:00
8:12 AM,77.0,77.0,100,29.86,-9999.0,SSE,17.3,33.4,N/A,,Unknown,150,2013-03-10 22:12:00
8:30 AM,75.2,73.4,94,29.86,-9999.0,SSE,25.3,-,N/A,,Unknown,150,2013-03-10 22:30:00
9:00 AM,76,73,87,29.86,,SSE,24.2,,,,,160,2013-03-10 23:00:00
9:00 AM,75.2,73.4,94,29.86,-9999.0,SSE,24.2,-,N/A,,Unknown,160,2013-03-10 23:00:00
9:36 AM,73.4,69.8,88,29.86,-9999.0,ESE,29.9,-,N/A,,Unknown,110,2013-03-10 23:36:00
9:41 AM,73.4,69.8,88,29.86,-9999.0,ESE,24.2,35.7,N/A,,Unknown,120,2013-03-10 23:41:00
9:48 AM,73.4,71.6,94,29.86,-9999.0,SSE,24.2,35.7,N/A,,Unknown,160,2013-03-10 23:48:00
10:00 AM,75.2,71.6,89,29.86,-9999.0,SSE,27.6,-,N/A,,Unknown,150,2013-03-11 00:00:00
10:30 AM,77.0,71.6,83,29.86,-9999.0,SSE,25.3,-,N/A,,Unknown,150,2013-03-11 00:30:00
11:00 AM,77.0,75.2,94,29.86,-9999.0,SSE,28.8,-,N/A,,Unknown,150,2013-03-11 01:00:00
11:30 AM,75.2,71.6,89,29.86,-9999.0,SE,28.8,-,N/A,,Unknown,130,2013-03-11 01:30:00
12:00 PM,79,75,84,29.84,,SE,24.2,,,,,140,2013-03-11 02:00:00
12:00 PM,78.8,75.2,89,29.83,-9999.0,SE,24.2,-,N/A,,Unknown,140,2013-03-11 02:00:00
12:30 PM,77.0,73.4,89,29.83,-9999.0,SE,32.2,-,N/A,,Unknown,140,2013-03-11 02:30:00
1:00 PM,77.0,73.4,89,29.83,-9999.0,SE,31.1,-,N/A,,Unknown,140,2013-03-11 03:00:00
1:30 PM,75.2,73.4,94,29.80,-9999.0,SSE,25.3,-,N/A,,Unknown,150,2013-03-11 03:30:00
2:00 PM,78.8,75.2,89,29.80,-9999.0,SSE,21.9,-,N/A,,Unknown,150,2013-03-11 04:00:00
2:15 PM,77.0,73.4,89,29.80,-9999.0,SSE,34.5,-,N/A,,Unknown,150,2013-03-11 04:15:00
2:30 PM,77.0,73.4,89,29.80,-9999.0,SE,35.7,-,N/A,,Unknown,140,2013-03-11 04:30:00
2:55 PM,69.8,66.2,88,29.80,-9999.0,ESE,20.7,39.1,N/A,,Unknown,110,2013-03-11 04:55:00
3:00 PM,73,73,100,29.80,,SE,16.1,,,,,130,2013-03-11 05:00:00
3:00 PM,73.4,73.4,100,29.80,-9999.0,SE,16.1,36.8,N/A,,Unknown,130,2013-03-11 05:00:00
3:34 PM,73.4,71.6,94,29.80,-9999.0,SE,25.3,38.0,N/A,,Unknown,140,2013-03-11 05:34:00
3:43 PM,71.6,71.6,100,29.80,-9999.0,ESE,27.6,-,N/A,,Unknown,110,2013-03-11 05:43:00
3:54 PM,71.6,71.6,100,29.80,-9999.0,East,25.3,38.0,N/A,,Unknown,100,2013-03-11 05:54:00
4:00 PM,73.4,73.4,100,29.80,-9999.0,East,18.4,-,N/A,,Unknown,100,2013-03-11 06:00:00
5:00 PM,77.0,71.6,83,29.80,-9999.0,SE,28.8,-,N/A,,Unknown,140,2013-03-11 07:00:00
6:00 PM,76,72,84,29.81,,ESE,35.7,,,,,120,2013-03-11 08:00:00
6:00 PM,75.2,71.6,89,29.80,-9999.0,ESE,35.7,-,N/A,,Unknown,120,2013-03-11 08:00:00
6:30 PM,77.0,71.6,83,29.83,-9999.0,ESE,27.6,-,N/A,,Unknown,120,2013-03-11 08:30:00
7:00 PM,77.0,71.6,83,29.83,-9999.0,SE,26.5,-,N/A,,Unknown,130,2013-03-11 09:00:00
7:30 PM,77.0,69.8,78,29.86,-9999.0,SE,32.2,-,N/A,,Unknown,130,2013-03-11 09:30:00
8:00 PM,77.0,71.6,83,29.86,-9999.0,SE,31.1,-,N/A,,Unknown,130,2013-03-11 10:00:00
8:30 PM,77.0,71.6,83,29.86,-9999.0,ESE,27.6,-,N/A,,Unknown,120,2013-03-11 10:30:00
9:00 PM,77,72,81,29.87,,ESE,23.0,,,,,120,2013-03-11 11:00:00
9:00 PM,77.0,71.6,83,29.86,-9999.0,ESE,23.0,-,N/A,,Unknown,120,2013-03-11 11:00:00
9:30 PM,77.0,71.6,83,29.89,-9999.0,SE,24.2,-,N/A,,Unknown,130,2013-03-11 11:30:00
10:00 PM,77.0,71.6,83,29.86,-9999.0,SE,24.2,-,N/A,,Unknown,140,2013-03-11 12:00:00
10:30 PM,77.0,73.4,89,29.89,-9999.0,SE,25.3,-,N/A,,Unknown,130,2013-03-11 12:30:00
11:00 PM,77.0,71.6,83,29.86,-9999.0,SE,28.8,-,N/A,,Unknown,140,2013-03-11 13:00:00
11:30 PM,77.0,71.6,83,29.86,-9999.0,SE,24.2,-,N/A,,Unknown,130,2013-03-11 13:30:00